N8AUR Weather Reports


time (UTC)temp
C
wind
direction
speed
KPH
gust
KPH
rain 1hr
cm
rain 24hr
cm
rain mn
cm
humidity
%
barometer
mb
20260503180031 15 267 16.1 0.0 0.00 0.00 0.00 36 1005.5
20260503174528 15 277 19.3 0.0 0.00 0.00 0.00 38 1006.0
20260503173026 14 282 17.7 0.0 0.00 0.00 0.00 38 1006.0
20260503171524 14 264 17.7 0.0 0.00 0.00 0.00 38 1006.1
20260503081537 1 238 0.0 0.0 0.00 0.00 0.00 63 1009.6
20260503071530 2 238 0.0 0.0 0.00 0.00 0.00 60 1009.7
20260503054525 2 238 0.0 0.0 0.00 0.00 0.00 67 1010.3
20260503053008 2 238 0.0 0.0 0.00 0.00 0.00 66 1010.4
20260503051503 2 238 0.0 0.0 0.00 0.00 0.00 63 1010.4
20260503050002 3 238 0.0 0.0 0.00 0.00 0.00 60 1010.4
20260503044500 3 238 0.0 0.0 0.00 0.00 0.00 59 1010.5
20260503043117 3 238 0.0 0.0 0.00 0.00 0.00 59 1010.5
20260503041559 3 238 0.0 0.0 0.00 0.00 0.00 60 1010.6
20260503040100 3 250 0.0 0.0 0.00 0.00 0.00 61 1010.7
20260503034609 3 271 0.0 0.0 0.00 0.00 0.00 63 1010.8
20260503033058 3 271 0.0 0.0 0.00 0.00 0.00 64 1010.9
20260503031556 3 271 0.0 0.0 0.00 0.00 0.00 64 1010.9
20260503030054 3 271 0.0 0.0 0.00 0.00 0.00 63 1011.0
20260503024554 3 271 0.0 0.0 0.00 0.00 0.00 62 1011.1
20260503023053 3 271 0.0 0.0 0.00 0.00 0.00 61 1011.2
20260503021553 3 271 0.0 0.0 0.00 0.00 0.00 61 1011.2
20260503020056 3 271 0.0 0.0 0.00 0.00 0.00 60 1011.1
20260503014605 4 271 0.0 0.0 0.00 0.00 0.00 58 1011.0
20260503013052 5 271 0.0 0.0 0.00 0.00 0.00 55 1010.9
20260503011552 5 271 0.0 0.0 0.00 0.00 0.00 52 1010.8
20260503010052 6 271 0.0 0.0 0.00 0.00 0.00 48 1010.9
20260503004550 6 271 0.0 0.0 0.00 0.00 0.00 45 1010.8
20260503003056 7 271 0.0 0.0 0.00 0.00 0.00 43 1010.8
20260503001607 7 272 3.2 0.0 0.00 0.00 0.00 41 1010.7
20260503000051 8 271 4.8 0.0 0.00 0.00 0.00 40 1010.8
20260502234551 8 269 4.8 0.0 0.00 0.00 0.00 39 1010.8
20260502233046 8 317 1.6 0.0 0.00 0.00 0.00 42 1010.8
20260502231544 7 288 0.0 0.0 0.00 0.00 0.00 40 1010.9
20260502230043 7 299 0.0 0.0 0.00 0.00 0.00 43 1011.0
20260502224542 7 299 0.0 0.0 0.00 0.00 0.00 44 1011.1
20260502223042 7 299 0.0 0.0 0.00 0.00 0.00 44 1011.1
20260502221545 7 311 3.2 0.0 0.00 0.00 0.00 41 1011.2
20260502220040 7 311 4.8 0.0 0.00 0.00 0.00 42 1011.2
20260502214548 7 303 1.6 0.0 0.00 0.00 0.00 41 1011.3
20260502213041 7 297 4.8 0.0 0.00 0.00 0.00 42 1011.3
20260502211538 7 312 4.8 0.0 0.00 0.00 0.00 44 1011.4
20260502210043 7 301 6.4 0.0 0.00 0.00 0.00 42 1011.4
20260502204541 7 300 4.8 0.0 0.00 0.00 0.00 43 1011.4
20260502203038 7 302 3.2 0.0 0.00 0.00 0.00 41 1011.5
20260502201538 7 285 4.8 0.0 0.00 0.00 0.00 42 1011.7
20260502200035 7 4 4.8 0.0 0.00 0.00 0.00 43 1011.8
20260502194536 7 302 6.4 0.0 0.00 0.00 0.00 45 1012.0
20260502193036 6 296 6.4 0.0 0.00 0.00 0.00 45 1012.1
20260502191532 7 320 3.2 0.0 0.00 0.00 0.00 44 1012.2
20260502190034 6 300 6.4 0.0 0.00 0.00 0.00 45 1012.4
20260502184551 6 244 6.4 0.0 0.00 0.00 0.00 44 1012.5
20260502183031 7 300 6.4 0.0 0.00 0.00 0.00 41 1012.4
20260502181531 6 277 9.7 0.0 0.00 0.00 0.00 43 1012.6